Time,TemperatureF,DewpointF,PressureIn,WindDirection,WindDirectionDegrees,WindSpeedMPH,WindSpeedGustMPH,Humidity,HourlyPrecipIn,Conditions,Clouds,dailyrainin,SoftwareType,DateUTC
2013-12-06 00:01:00,55.0,55.0,29.94,WSW,247,0.0,3.0,100,0.00,,,0.00,Rainwise IP-100,2013-12-06 05:01:00,
2013-12-06 00:06:00,55.0,55.0,29.93,SSW,202,1.4,3.0,100,0.00,,,0.00,Rainwise IP-100,2013-12-06 05:06:00,
2013-12-06 00:11:00,54.9,55.0,29.93,SW,225,2.3,4.0,100,0.00,,,0.00,Rainwise IP-100,2013-12-06 05:11:00,
2013-12-06 00:16:00,54.8,54.0,29.92,SW,225,1.9,4.0,100,0.00,,,0.00,Rainwise IP-100,2013-12-06 05:16:00,
2013-12-06 00:21:00,54.6,54.0,29.93,WSW,247,1.6,3.0,100,0.00,,,0.00,Rainwise IP-100,2013-12-06 05:21:00,
2013-12-06 00:26:00,54.5,54.0,29.93,West,270,1.4,3.0,100,0.00,,,0.00,Rainwise IP-100,2013-12-06 05:26:00,
2013-12-06 00:31:00,54.5,54.0,29.92,West,270,1.4,4.0,100,0.00,,,0.00,Rainwise IP-100,2013-12-06 05:31:00,
2013-12-06 00:36:00,54.5,54.0,29.92,SW,225,1.6,3.0,100,0.00,,,0.00,Rainwise IP-100,2013-12-06 05:36:00,
2013-12-06 00:41:00,54.6,54.0,29.92,SSW,202,2.3,4.0,100,0.00,,,0.00,Rainwise IP-100,2013-12-06 05:41:00,
2013-12-06 00:46:00,54.6,54.0,29.92,SSW,202,0.0,3.0,100,0.00,,,0.00,Rainwise IP-100,2013-12-06 05:46:00,
2013-12-06 00:51:00,54.6,54.0,29.91,SW,225,0.0,2.0,100,0.00,,,0.00,Rainwise IP-100,2013-12-06 05:51:00,
2013-12-06 00:56:00,54.7,54.0,29.91,WSW,247,1.6,3.0,100,0.00,,,0.00,Rainwise IP-100,2013-12-06 05:56:00,
2013-12-06 01:01:00,54.7,54.0,29.91,WSW,247,1.4,3.0,100,0.00,,,0.00,Rainwise IP-100,2013-12-06 06:01:00,
2013-12-06 01:06:00,54.8,54.0,29.92,WSW,247,1.4,3.0,100,0.00,,,0.00,Rainwise IP-100,2013-12-06 06:06:00,
2013-12-06 01:11:00,54.9,55.0,29.91,SW,225,2.3,3.0,100,0.00,,,0.00,Rainwise IP-100,2013-12-06 06:11:00,
2013-12-06 01:16:00,54.9,55.0,29.92,WSW,247,1.9,3.0,100,0.00,,,0.00,Rainwise IP-100,2013-12-06 06:16:00,
2013-12-06 01:21:00,54.8,54.0,29.92,WSW,247,1.6,4.0,100,0.00,,,0.00,Rainwise IP-100,2013-12-06 06:21:00,
2013-12-06 01:26:00,54.8,54.0,29.92,WNW,292,1.2,3.0,100,0.00,,,0.00,Rainwise IP-100,2013-12-06 06:26:00,
2013-12-06 01:31:00,54.9,55.0,29.92,West,270,1.6,4.0,100,0.00,,,0.00,Rainwise IP-100,2013-12-06 06:31:00,
2013-12-06 01:36:00,55.0,55.0,29.92,West,270,1.6,3.0,100,0.00,,,0.00,Rainwise IP-100,2013-12-06 06:36:00,
2013-12-06 01:41:00,55.1,55.0,29.92,WSW,247,2.6,3.0,100,0.00,,,0.00,Rainwise IP-100,2013-12-06 06:41:00,
2013-12-06 01:46:00,55.2,55.0,29.92,West,270,2.6,4.0,100,0.00,,,0.00,Rainwise IP-100,2013-12-06 06:46:00,
2013-12-06 01:51:00,55.1,55.0,29.91,WSW,247,2.3,5.0,100,0.00,,,0.00,Rainwise IP-100,2013-12-06 06:51:00,
2013-12-06 01:56:00,55.1,55.0,29.90,South,180,2.8,4.0,100,0.00,,,0.00,Rainwise IP-100,2013-12-06 06:56:00,
2013-12-06 02:01:00,55.1,55.0,29.90,WSW,247,1.9,4.0,100,0.00,,,0.00,Rainwise IP-100,2013-12-06 07:01:00,
2013-12-06 02:06:00,55.0,55.0,29.90,West,270,0.0,3.0,100,0.00,,,0.00,Rainwise IP-100,2013-12-06 07:06:00,
2013-12-06 02:11:00,55.1,55.0,29.90,WSW,247,1.2,3.0,100,0.00,,,0.00,Rainwise IP-100,2013-12-06 07:11:00,
2013-12-06 02:16:00,55.1,55.0,29.89,WSW,247,1.9,4.0,100,0.00,,,0.00,Rainwise IP-100,2013-12-06 07:16:00,
2013-12-06 02:21:00,55.0,55.0,29.90,WSW,247,1.6,3.0,100,0.00,,,0.00,Rainwise IP-100,2013-12-06 07:21:00,
2013-12-06 02:26:00,54.9,55.0,29.89,WSW,247,1.6,3.0,100,0.06,,,0.01,Rainwise IP-100,2013-12-06 07:26:00,
2013-12-06 02:31:00,55.0,55.0,29.90,WSW,247,1.2,4.0,100,0.06,,,0.01,Rainwise IP-100,2013-12-06 07:31:00,
2013-12-06 02:36:00,55.1,55.0,29.89,WSW,247,2.1,3.0,100,0.00,,,0.01,Rainwise IP-100,2013-12-06 07:36:00,
2013-12-06 02:41:00,55.2,55.0,29.89,West,270,0.0,5.0,100,0.00,,,0.01,Rainwise IP-100,2013-12-06 07:41:00,
2013-12-06 02:46:00,55.4,55.0,29.89,WSW,247,0.0,3.0,100,0.00,,,0.01,Rainwise IP-100,2013-12-06 07:46:00,
2013-12-06 02:51:00,55.5,56.0,29.89,WSW,247,1.4,3.0,100,0.00,,,0.01,Rainwise IP-100,2013-12-06 07:51:00,
2013-12-06 02:56:00,55.6,56.0,29.89,SW,225,4.2,4.2,100,0.00,,,0.01,Rainwise IP-100,2013-12-06 07:56:00,
2013-12-06 03:01:00,55.7,56.0,29.88,WSW,247,0.0,5.0,100,0.00,,,0.01,Rainwise IP-100,2013-12-06 08:01:00,
2013-12-06 03:06:00,55.7,56.0,29.88,SW,225,2.3,4.0,100,0.00,,,0.01,Rainwise IP-100,2013-12-06 08:06:00,
2013-12-06 03:11:00,55.8,56.0,29.88,SW,225,2.8,5.0,100,0.00,,,0.01,Rainwise IP-100,2013-12-06 08:11:00,
2013-12-06 03:16:00,56.1,56.0,29.89,SW,225,1.2,5.0,100,0.00,,,0.01,Rainwise IP-100,2013-12-06 08:16:00,
2013-12-06 03:21:00,56.2,56.0,29.89,West,270,0.0,5.0,100,0.00,,,0.01,Rainwise IP-100,2013-12-06 08:21:00,
2013-12-06 03:26:00,56.2,56.0,29.88,West,270,2.6,2.6,100,0.00,,,0.01,Rainwise IP-100,2013-12-06 08:26:00,
2013-12-06 03:31:00,56.2,56.0,29.88,WSW,247,1.4,4.0,100,0.00,,,0.01,Rainwise IP-100,2013-12-06 08:31:00,
2013-12-06 03:36:00,56.3,56.0,29.88,WSW,247,0.0,3.0,100,0.00,,,0.01,Rainwise IP-100,2013-12-06 08:36:00,
2013-12-06 03:41:00,56.3,56.0,29.87,West,270,0.0,4.0,100,0.00,,,0.01,Rainwise IP-100,2013-12-06 08:41:00,
2013-12-06 03:46:00,56.3,56.0,29.87,West,270,2.1,2.1,100,0.00,,,0.01,Rainwise IP-100,2013-12-06 08:46:00,
2013-12-06 03:51:00,56.4,56.0,29.88,West,270,2.8,3.0,100,0.00,,,0.01,Rainwise IP-100,2013-12-06 08:51:00,
2013-12-06 03:56:00,56.3,56.0,29.88,West,270,2.8,3.0,100,0.00,,,0.01,Rainwise IP-100,2013-12-06 08:56:00,
2013-12-06 04:01:00,56.3,56.0,29.89,West,270,3.0,4.0,100,0.00,,,0.01,Rainwise IP-100,2013-12-06 09:01:00,
2013-12-06 04:06:00,56.2,56.0,29.89,WNW,292,0.0,5.0,100,0.00,,,0.01,Rainwise IP-100,2013-12-06 09:06:00,
2013-12-06 04:11:00,56.2,56.0,29.88,WNW,292,2.3,4.0,100,0.00,,,0.01,Rainwise IP-100,2013-12-06 09:11:00,
2013-12-06 04:16:00,56.3,56.0,29.89,West,270,2.6,4.0,100,0.00,,,0.01,Rainwise IP-100,2013-12-06 09:16:00,
2013-12-06 04:21:00,56.4,56.0,29.88,West,270,2.1,4.0,100,0.00,,,0.01,Rainwise IP-100,2013-12-06 09:21:00,
2013-12-06 04:26:00,56.7,56.0,29.88,SW,225,3.3,4.0,100,0.00,,,0.01,Rainwise IP-100,2013-12-06 09:26:00,
2013-12-06 04:31:00,56.9,57.0,29.88,SW,225,2.8,4.0,100,0.00,,,0.01,Rainwise IP-100,2013-12-06 09:31:00,
2013-12-06 04:36:00,56.9,57.0,29.88,SW,225,1.2,4.0,100,0.06,,,0.02,Rainwise IP-100,2013-12-06 09:36:00,
2013-12-06 04:41:00,56.7,56.0,29.88,SW,225,1.2,3.0,100,0.06,,,0.02,Rainwise IP-100,2013-12-06 09:41:00,
2013-12-06 04:46:00,56.6,56.0,29.87,WSW,247,0.0,2.0,100,0.00,,,0.02,Rainwise IP-100,2013-12-06 09:46:00,
2013-12-06 04:51:00,56.7,56.0,29.88,West,270,2.1,3.0,100,0.00,,,0.02,Rainwise IP-100,2013-12-06 09:51:00,
2013-12-06 04:56:00,56.9,57.0,29.87,WNW,292,0.0,5.0,100,0.00,,,0.02,Rainwise IP-100,2013-12-06 09:56:00,
2013-12-06 05:01:00,57.2,57.0,29.88,WSW,247,2.6,5.0,100,0.00,,,0.02,Rainwise IP-100,2013-12-06 10:01:00,
2013-12-06 05:06:00,57.4,57.0,29.88,WSW,247,1.6,4.0,100,0.00,,,0.02,Rainwise IP-100,2013-12-06 10:06:00,
2013-12-06 05:11:00,57.4,57.0,29.88,WSW,247,0.0,3.0,100,0.00,,,0.02,Rainwise IP-100,2013-12-06 10:11:00,
2013-12-06 05:16:00,57.5,57.0,29.88,WSW,247,2.6,5.0,100,0.00,,,0.02,Rainwise IP-100,2013-12-06 10:16:00,
2013-12-06 05:21:00,57.6,57.0,29.89,WSW,247,2.3,4.0,100,0.00,,,0.02,Rainwise IP-100,2013-12-06 10:21:00,
2013-12-06 05:26:00,57.6,57.0,29.88,WSW,247,0.0,6.0,100,0.06,,,0.03,Rainwise IP-100,2013-12-06 10:26:00,
2013-12-06 05:31:00,57.7,57.0,29.88,WSW,247,2.6,5.0,100,0.06,,,0.03,Rainwise IP-100,2013-12-06 10:31:00,
2013-12-06 05:36:00,57.6,57.0,29.89,West,270,2.8,5.0,100,0.00,,,0.03,Rainwise IP-100,2013-12-06 10:36:00,
2013-12-06 05:41:00,57.6,57.0,29.89,WNW,292,6.8,6.8,100,0.00,,,0.03,Rainwise IP-100,2013-12-06 10:41:00,
2013-12-06 05:46:00,57.5,57.0,29.90,NNE,22,11.7,11.7,100,0.06,,,0.04,Rainwise IP-100,2013-12-06 10:46:00,
2013-12-06 05:51:00,54.6,54.0,29.90,North,0,12.1,15.0,100,0.06,,,0.04,Rainwise IP-100,2013-12-06 10:51:00,
2013-12-06 05:56:00,50.7,50.0,29.92,North,0,4.7,14.0,100,0.00,,,0.04,Rainwise IP-100,2013-12-06 10:56:00,
2013-12-06 06:01:00,49.1,49.0,29.92,NNE,22,8.4,21.0,100,0.00,,,0.04,Rainwise IP-100,2013-12-06 11:01:00,
2013-12-06 06:07:00,48.3,48.0,29.91,NW,315,9.8,15.0,100,0.00,,,0.04,Rainwise IP-100,2013-12-06 11:07:00,
2013-12-06 06:12:00,47.8,47.0,29.91,NNE,22,7.9,14.0,100,0.00,,,0.04,Rainwise IP-100,2013-12-06 11:12:00,
2013-12-06 06:17:00,47.4,47.0,29.90,NNW,337,8.4,14.0,100,0.00,,,0.04,Rainwise IP-100,2013-12-06 11:17:00,
2013-12-06 06:22:00,47.1,47.0,29.90,NNE,22,8.4,14.0,100,0.00,,,0.04,Rainwise IP-100,2013-12-06 11:22:00,
2013-12-06 06:27:00,46.9,47.0,29.91,NW,315,10.0,12.0,100,0.00,,,0.04,Rainwise IP-100,2013-12-06 11:27:00,
2013-12-06 06:32:00,46.5,47.0,29.92,NNE,22,6.8,16.0,100,0.00,,,0.04,Rainwise IP-100,2013-12-06 11:32:00,
2013-12-06 06:37:00,46.1,46.0,29.92,WNW,292,9.6,13.0,100,0.00,,,0.04,Rainwise IP-100,2013-12-06 11:37:00,
2013-12-06 06:42:00,45.9,46.0,29.92,NNW,337,6.8,14.0,100,0.00,,,0.04,Rainwise IP-100,2013-12-06 11:42:00,
2013-12-06 06:47:00,45.8,46.0,29.93,NW,315,11.9,12.0,100,0.00,,,0.04,Rainwise IP-100,2013-12-06 11:47:00,
2013-12-06 06:52:00,45.7,46.0,29.93,North,0,9.1,14.0,100,0.00,,,0.04,Rainwise IP-100,2013-12-06 11:52:00,
2013-12-06 06:57:00,45.8,46.0,29.93,North,0,10.7,15.0,100,0.00,,,0.04,Rainwise IP-100,2013-12-06 11:57:00,
2013-12-06 07:02:00,46.1,46.0,29.94,NNW,337,9.6,17.0,99,0.06,,,0.05,Rainwise IP-100,2013-12-06 12:02:00,
2013-12-06 07:07:00,46.2,46.0,29.95,North,0,8.2,22.0,99,0.06,,,0.05,Rainwise IP-100,2013-12-06 12:07:00,
2013-12-06 07:12:00,46.3,46.0,29.94,North,0,11.7,13.0,99,0.00,,,0.05,Rainwise IP-100,2013-12-06 12:12:00,
2013-12-06 07:17:00,46.2,45.0,29.95,NW,315,9.3,16.0,98,0.00,,,0.05,Rainwise IP-100,2013-12-06 12:17:00,
2013-12-06 07:22:00,46.2,45.0,29.94,NNW,337,7.7,11.0,98,0.00,,,0.05,Rainwise IP-100,2013-12-06 12:22:00,
2013-12-06 07:27:00,46.4,45.0,29.94,NNW,337,10.0,10.0,98,0.00,,,0.05,Rainwise IP-100,2013-12-06 12:27:00,
2013-12-06 07:32:00,46.5,46.0,29.94,NNW,337,9.1,12.0,97,0.00,,,0.05,Rainwise IP-100,2013-12-06 12:32:00,
2013-12-06 07:37:00,46.7,46.0,29.95,NNW,337,9.1,11.0,97,0.00,,,0.05,Rainwise IP-100,2013-12-06 12:37:00,
2013-12-06 07:42:00,46.7,46.0,29.95,NNW,337,9.6,13.0,96,0.00,,,0.05,Rainwise IP-100,2013-12-06 12:42:00,
2013-12-06 07:47:00,46.5,46.0,29.96,North,0,5.8,12.0,96,0.00,,,0.05,Rainwise IP-100,2013-12-06 12:47:00,
2013-12-06 07:52:00,46.4,45.0,29.95,NE,45,6.1,11.0,96,0.00,,,0.05,Rainwise IP-100,2013-12-06 12:52:00,
2013-12-06 07:57:00,46.1,45.0,29.95,North,0,7.9,13.0,96,0.00,,,0.05,Rainwise IP-100,2013-12-06 12:57:00,
2013-12-06 08:02:00,46.0,45.0,29.96,NNW,337,8.6,10.0,96,0.00,,,0.05,Rainwise IP-100,2013-12-06 13:02:00,
2013-12-06 08:07:00,46.0,45.0,29.96,North,0,5.1,10.0,96,0.00,,,0.05,Rainwise IP-100,2013-12-06 13:07:00,
2013-12-06 08:12:00,46.0,45.0,29.97,North,0,7.0,12.0,96,0.00,,,0.05,Rainwise IP-100,2013-12-06 13:12:00,
2013-12-06 08:17:00,45.9,45.0,29.97,North,0,5.1,11.0,96,0.06,,,0.06,Rainwise IP-100,2013-12-06 13:17:00,
2013-12-06 08:22:00,45.7,45.0,29.98,NNE,22,7.0,11.0,96,0.06,,,0.06,Rainwise IP-100,2013-12-06 13:22:00,
2013-12-06 08:27:00,45.7,45.0,29.98,North,0,2.8,11.0,96,0.00,,,0.06,Rainwise IP-100,2013-12-06 13:27:00,
2013-12-06 08:32:00,45.6,45.0,29.98,NW,315,7.0,11.0,96,0.00,,,0.06,Rainwise IP-100,2013-12-06 13:32:00,
2013-12-06 08:37:00,45.5,45.0,29.98,NNW,337,5.4,9.0,96,0.06,,,0.07,Rainwise IP-100,2013-12-06 13:37:00,
2013-12-06 08:42:00,45.4,44.0,29.98,North,0,5.6,9.0,96,0.06,,,0.07,Rainwise IP-100,2013-12-06 13:42:00,
2013-12-06 08:47:00,45.3,44.0,29.99,North,0,7.9,9.0,95,0.00,,,0.07,Rainwise IP-100,2013-12-06 13:47:00,
2013-12-06 08:52:00,45.2,44.0,29.98,North,0,10.0,10.0,95,0.00,,,0.07,Rainwise IP-100,2013-12-06 13:52:00,
2013-12-06 08:57:00,45.0,44.0,29.97,North,0,7.9,12.0,95,0.00,,,0.07,Rainwise IP-100,2013-12-06 13:57:00,
2013-12-06 09:02:00,44.9,44.0,29.98,North,0,6.8,12.0,95,0.00,,,0.07,Rainwise IP-100,2013-12-06 14:02:00,
2013-12-06 09:07:00,44.8,44.0,29.99,NNE,22,3.5,10.0,95,0.00,,,0.07,Rainwise IP-100,2013-12-06 14:07:00,
2013-12-06 09:12:00,44.8,44.0,29.99,North,0,5.6,10.0,95,0.00,,,0.07,Rainwise IP-100,2013-12-06 14:12:00,
2013-12-06 09:17:00,44.7,44.0,29.98,NE,45,6.3,9.0,95,0.00,,,0.07,Rainwise IP-100,2013-12-06 14:17:00,
2013-12-06 09:22:00,44.7,44.0,29.99,North,0,1.2,8.0,95,0.00,,,0.07,Rainwise IP-100,2013-12-06 14:22:00,
2013-12-06 09:27:00,44.7,44.0,30.00,NE,45,6.1,9.0,95,0.00,,,0.07,Rainwise IP-100,2013-12-06 14:27:00,
2013-12-06 09:32:00,44.6,44.0,30.00,NE,45,4.9,7.0,95,0.00,,,0.07,Rainwise IP-100,2013-12-06 14:32:00,
2013-12-06 09:37:00,44.6,43.0,30.00,NE,45,8.6,12.0,94,0.00,,,0.07,Rainwise IP-100,2013-12-06 14:37:00,
2013-12-06 09:42:00,44.6,43.0,30.01,NNE,22,8.2,12.0,94,0.00,,,0.07,Rainwise IP-100,2013-12-06 14:42:00,
2013-12-06 09:47:00,44.4,42.0,30.01,North,0,5.1,8.0,94,0.00,,,0.07,Rainwise IP-100,2013-12-06 14:47:00,
2013-12-06 09:52:00,44.2,43.0,30.02,NNW,337,4.9,9.0,95,0.00,,,0.07,Rainwise IP-100,2013-12-06 14:52:00,
2013-12-06 09:57:00,44.1,43.0,30.02,NE,45,8.9,14.0,95,0.06,,,0.08,Rainwise IP-100,2013-12-06 14:57:00,
2013-12-06 10:02:00,43.8,42.0,30.02,North,0,4.7,12.0,94,0.06,,,0.08,Rainwise IP-100,2013-12-06 15:02:00,
2013-12-06 10:07:00,43.6,42.0,30.02,NE,45,7.9,9.0,94,0.00,,,0.08,Rainwise IP-100,2013-12-06 15:07:00,
2013-12-06 10:12:00,43.4,42.0,30.02,ENE,67,4.7,10.0,95,0.06,,,0.09,Rainwise IP-100,2013-12-06 15:12:00,
2013-12-06 10:17:00,43.2,42.0,30.02,North,0,3.5,9.0,95,0.12,,,0.10,Rainwise IP-100,2013-12-06 15:17:00,
2013-12-06 10:22:00,43.0,42.0,30.01,North,0,2.1,6.0,95,0.18,,,0.12,Rainwise IP-100,2013-12-06 15:22:00,
2013-12-06 10:27:00,42.8,42.0,30.01,NE,45,4.2,8.0,96,0.18,,,0.13,Rainwise IP-100,2013-12-06 15:27:00,
2013-12-06 10:32:00,42.7,42.0,30.00,NE,45,6.1,6.1,96,0.18,,,0.15,Rainwise IP-100,2013-12-06 15:32:00,
2013-12-06 10:37:00,42.5,42.0,30.00,NE,45,4.9,10.0,97,0.18,,,0.16,Rainwise IP-100,2013-12-06 15:37:00,
2013-12-06 10:42:00,42.5,42.0,30.01,NNE,22,2.8,7.0,97,0.06,,,0.16,Rainwise IP-100,2013-12-06 15:42:00,
2013-12-06 10:47:00,42.4,41.0,30.02,NNW,337,4.2,8.0,97,0.00,,,0.16,Rainwise IP-100,2013-12-06 15:47:00,
2013-12-06 10:52:00,42.4,41.0,30.02,ENE,67,5.1,5.1,97,0.00,,,0.16,Rainwise IP-100,2013-12-06 15:52:00,
2013-12-06 10:57:00,42.5,42.0,30.01,ENE,67,1.4,6.0,97,0.00,,,0.16,Rainwise IP-100,2013-12-06 15:57:00,
2013-12-06 11:02:00,42.5,42.0,30.02,NW,315,4.4,5.0,97,0.00,,,0.16,Rainwise IP-100,2013-12-06 16:02:00,
2013-12-06 11:07:00,42.5,42.0,30.02,NNW,337,3.3,8.0,97,0.00,,,0.16,Rainwise IP-100,2013-12-06 16:07:00,
2013-12-06 11:12:00,42.4,41.0,30.02,NW,315,3.3,6.0,97,0.00,,,0.16,Rainwise IP-100,2013-12-06 16:12:00,
2013-12-06 11:17:00,42.4,41.0,30.03,North,0,2.3,5.0,97,0.00,,,0.16,Rainwise IP-100,2013-12-06 16:17:00,
2013-12-06 11:22:00,42.4,41.0,30.02,North,0,2.8,5.0,97,0.00,,,0.16,Rainwise IP-100,2013-12-06 16:22:00,
2013-12-06 11:27:00,42.3,41.0,30.02,NNW,337,5.8,9.0,97,0.06,,,0.17,Rainwise IP-100,2013-12-06 16:27:00,
2013-12-06 11:32:00,42.1,41.0,30.02,North,0,2.6,6.0,97,0.06,,,0.17,Rainwise IP-100,2013-12-06 16:32:00,
2013-12-06 11:37:00,42.0,41.0,30.01,NNE,22,3.0,4.0,97,0.00,,,0.17,Rainwise IP-100,2013-12-06 16:37:00,
2013-12-06 11:42:00,41.9,41.0,30.02,NNW,337,4.4,5.0,97,0.00,,,0.17,Rainwise IP-100,2013-12-06 16:42:00,
2013-12-06 11:47:00,41.9,41.0,30.02,NNW,337,3.5,4.0,97,0.00,,,0.17,Rainwise IP-100,2013-12-06 16:47:00,
2013-12-06 11:52:00,41.9,41.0,30.03,WNW,292,2.6,5.0,98,0.00,,,0.17,Rainwise IP-100,2013-12-06 16:52:00,
2013-12-06 11:57:00,41.8,41.0,30.03,NNW,337,3.7,6.0,98,0.06,,,0.18,Rainwise IP-100,2013-12-06 16:57:00,
2013-12-06 12:02:00,41.8,41.0,30.04,NW,315,6.8,10.0,98,0.06,,,0.18,Rainwise IP-100,2013-12-06 17:02:00,
2013-12-06 12:07:00,41.5,41.0,30.04,NNW,337,5.4,10.0,97,0.00,,,0.18,Rainwise IP-100,2013-12-06 17:07:00,
2013-12-06 12:12:00,41.2,40.0,30.03,NNW,337,5.4,10.0,97,0.00,,,0.18,Rainwise IP-100,2013-12-06 17:12:00,
2013-12-06 12:17:00,41.0,40.0,30.02,North,0,6.5,8.0,97,0.00,,,0.18,Rainwise IP-100,2013-12-06 17:17:00,
2013-12-06 12:22:00,40.8,40.0,30.01,NNE,22,6.1,12.0,97,0.00,,,0.18,Rainwise IP-100,2013-12-06 17:22:00,
2013-12-06 12:27:00,40.8,40.0,30.01,North,0,6.5,9.0,97,0.00,,,0.18,Rainwise IP-100,2013-12-06 17:27:00,
2013-12-06 12:32:00,40.8,40.0,30.02,North,0,3.0,8.0,97,0.00,,,0.18,Rainwise IP-100,2013-12-06 17:32:00,
2013-12-06 12:37:00,40.8,40.0,30.02,North,0,2.1,5.0,97,0.00,,,0.18,Rainwise IP-100,2013-12-06 17:37:00,
2013-12-06 12:42:00,40.7,40.0,30.03,WNW,292,4.0,9.0,96,0.00,,,0.18,Rainwise IP-100,2013-12-06 17:42:00,
2013-12-06 12:47:00,40.7,40.0,30.02,North,0,4.4,6.0,96,0.00,,,0.18,Rainwise IP-100,2013-12-06 17:47:00,
2013-12-06 12:52:00,40.8,40.0,30.03,North,0,4.9,9.0,95,0.00,,,0.18,Rainwise IP-100,2013-12-06 17:52:00,
2013-12-06 12:57:00,40.8,40.0,30.02,NW,315,7.2,7.2,95,0.00,,,0.18,Rainwise IP-100,2013-12-06 17:57:00,
2013-12-06 13:02:00,40.8,39.0,30.02,WNW,292,7.9,10.0,94,0.00,,,0.18,Rainwise IP-100,2013-12-06 18:02:00,
2013-12-06 13:07:00,40.9,39.0,30.02,North,0,2.8,9.0,94,0.00,,,0.18,Rainwise IP-100,2013-12-06 18:07:00,
2013-12-06 13:12:00,40.9,40.0,30.02,North,0,2.6,7.0,95,0.00,,,0.18,Rainwise IP-100,2013-12-06 18:12:00,
2013-12-06 13:17:00,40.9,39.0,30.02,NE,45,4.7,8.0,94,0.00,,,0.18,Rainwise IP-100,2013-12-06 18:17:00,
2013-12-06 13:22:00,40.9,39.0,30.02,NNE,22,4.2,7.0,94,0.00,,,0.18,Rainwise IP-100,2013-12-06 18:22:00,
2013-12-06 13:27:00,40.9,39.0,30.00,North,0,2.3,6.0,94,0.06,,,0.19,Rainwise IP-100,2013-12-06 18:27:00,
2013-12-06 13:32:00,40.9,39.0,30.00,NNE,22,6.3,7.0,94,0.06,,,0.19,Rainwise IP-100,2013-12-06 18:32:00,
2013-12-06 13:37:00,40.8,39.0,29.99,NE,45,4.9,6.0,94,0.00,,,0.19,Rainwise IP-100,2013-12-06 18:37:00,
2013-12-06 13:42:00,40.8,39.0,30.00,North,0,2.6,5.0,94,0.00,,,0.19,Rainwise IP-100,2013-12-06 18:42:00,
2013-12-06 13:47:00,40.8,39.0,30.00,NE,45,2.1,6.0,94,0.00,,,0.19,Rainwise IP-100,2013-12-06 18:47:00,
2013-12-06 13:52:00,40.8,39.0,30.00,ENE,67,3.3,7.0,94,0.00,,,0.19,Rainwise IP-100,2013-12-06 18:52:00,
2013-12-06 13:57:00,40.9,39.0,30.00,North,0,1.9,5.0,93,0.00,,,0.19,Rainwise IP-100,2013-12-06 18:57:00,
2013-12-06 14:02:00,40.9,39.0,30.01,NNW,337,5.4,8.0,93,0.00,,,0.19,Rainwise IP-100,2013-12-06 19:02:00,
2013-12-06 14:07:00,40.9,39.0,30.01,North,0,5.1,7.0,92,0.00,,,0.19,Rainwise IP-100,2013-12-06 19:07:00,
2013-12-06 14:12:00,40.9,39.0,30.01,NW,315,5.6,7.0,92,0.00,,,0.19,Rainwise IP-100,2013-12-06 19:12:00,
2013-12-06 14:17:00,40.8,39.0,30.00,NNW,337,3.3,8.0,92,0.06,,,0.20,Rainwise IP-100,2013-12-06 19:17:00,
2013-12-06 14:22:00,40.7,39.0,30.00,NNE,22,1.6,3.0,92,0.06,,,0.20,Rainwise IP-100,2013-12-06 19:22:00,
2013-12-06 14:27:00,40.7,39.0,30.00,North,0,0.0,3.0,92,0.00,,,0.20,Rainwise IP-100,2013-12-06 19:27:00,
2013-12-06 14:32:00,40.6,39.0,30.01,North,0,0.0,2.0,92,0.00,,,0.20,Rainwise IP-100,2013-12-06 19:32:00,
2013-12-06 14:37:00,40.6,39.0,30.00,NE,45,2.6,3.0,93,0.00,,,0.20,Rainwise IP-100,2013-12-06 19:37:00,
2013-12-06 14:42:00,40.6,39.0,30.01,NNW,337,3.5,4.0,92,0.00,,,0.20,Rainwise IP-100,2013-12-06 19:42:00,
2013-12-06 14:47:00,40.6,39.0,30.01,North,0,2.1,4.0,92,0.00,,,0.20,Rainwise IP-100,2013-12-06 19:47:00,
2013-12-06 14:52:00,40.6,39.0,30.01,North,0,3.0,4.0,92,0.00,,,0.20,Rainwise IP-100,2013-12-06 19:52:00,
2013-12-06 14:57:00,40.6,39.0,30.02,NW,315,2.6,3.0,92,0.00,,,0.20,Rainwise IP-100,2013-12-06 19:57:00,
2013-12-06 15:02:00,40.7,39.0,30.03,NNW,337,5.1,7.0,92,0.00,,,0.20,Rainwise IP-100,2013-12-06 20:02:00,
2013-12-06 15:07:00,40.8,39.0,30.03,NW,315,2.8,6.0,92,0.00,,,0.20,Rainwise IP-100,2013-12-06 20:07:00,
2013-12-06 15:12:00,40.7,39.0,30.02,North,0,0.0,3.0,92,0.00,,,0.20,Rainwise IP-100,2013-12-06 20:12:00,
2013-12-06 15:17:00,40.4,38.0,30.02,North,0,4.9,6.0,92,0.06,,,0.21,Rainwise IP-100,2013-12-06 20:17:00,
2013-12-06 15:22:00,40.3,38.0,30.02,NE,45,2.1,5.0,93,0.06,,,0.21,Rainwise IP-100,2013-12-06 20:22:00,
2013-12-06 15:27:00,40.1,38.0,30.01,NNE,22,2.6,4.0,93,0.00,,,0.21,Rainwise IP-100,2013-12-06 20:27:00,
2013-12-06 15:32:00,40.1,38.0,30.02,North,0,3.0,5.0,93,0.00,,,0.21,Rainwise IP-100,2013-12-06 20:32:00,
2013-12-06 15:37:00,40.0,39.0,30.01,North,0,4.4,10.0,94,0.00,,,0.21,Rainwise IP-100,2013-12-06 20:37:00,
2013-12-06 15:42:00,39.9,38.0,30.01,North,0,3.3,8.0,93,0.00,,,0.21,Rainwise IP-100,2013-12-06 20:42:00,
2013-12-06 15:47:00,39.9,38.0,30.00,NE,45,2.1,7.0,93,0.06,,,0.22,Rainwise IP-100,2013-12-06 20:47:00,
2013-12-06 15:52:00,39.8,38.0,30.01,NNE,22,3.5,5.0,93,0.06,,,0.22,Rainwise IP-100,2013-12-06 20:52:00,
2013-12-06 15:57:00,39.7,38.0,30.01,NE,45,2.6,5.0,93,0.00,,,0.22,Rainwise IP-100,2013-12-06 20:57:00,
2013-12-06 16:02:00,39.7,38.0,30.01,NNE,22,3.3,6.0,92,0.00,,,0.22,Rainwise IP-100,2013-12-06 21:02:00,
2013-12-06 16:07:00,39.6,38.0,30.02,North,0,3.3,4.0,92,0.00,,,0.22,Rainwise IP-100,2013-12-06 21:07:00,
2013-12-06 16:12:00,39.6,38.0,30.03,North,0,3.7,5.0,92,0.00,,,0.22,Rainwise IP-100,2013-12-06 21:12:00,
2013-12-06 16:17:00,39.6,38.0,30.04,NNE,22,1.6,4.0,92,0.00,,,0.22,Rainwise IP-100,2013-12-06 21:17:00,
2013-12-06 16:22:00,39.6,38.0,30.03,North,0,2.8,4.0,92,0.00,,,0.22,Rainwise IP-100,2013-12-06 21:22:00,
2013-12-06 16:27:00,39.5,38.0,30.04,NE,45,2.8,3.0,92,0.00,,,0.22,Rainwise IP-100,2013-12-06 21:27:00,
2013-12-06 16:32:00,39.4,37.0,30.02,NE,45,2.3,3.0,92,0.00,,,0.22,Rainwise IP-100,2013-12-06 21:32:00,
2013-12-06 16:37:00,39.3,37.0,30.03,NE,45,1.2,4.0,93,0.00,,,0.22,Rainwise IP-100,2013-12-06 21:37:00,
2013-12-06 16:42:00,39.3,37.0,30.03,NNE,22,2.3,3.0,93,0.00,,,0.22,Rainwise IP-100,2013-12-06 21:42:00,
2013-12-06 16:47:00,39.3,37.0,30.03,NE,45,3.0,6.0,93,0.00,,,0.22,Rainwise IP-100,2013-12-06 21:47:00,
2013-12-06 16:52:00,39.3,37.0,30.02,NE,45,2.3,5.0,93,0.00,,,0.22,Rainwise IP-100,2013-12-06 21:52:00,
2013-12-06 16:57:00,39.3,37.0,30.03,NE,45,4.2,4.2,93,0.00,,,0.22,Rainwise IP-100,2013-12-06 21:57:00,
2013-12-06 17:02:00,39.3,37.0,30.02,NE,45,3.7,6.0,93,0.00,,,0.22,Rainwise IP-100,2013-12-06 22:02:00,
2013-12-06 17:07:00,39.3,37.0,30.04,NNE,22,0.0,4.0,93,0.00,,,0.22,Rainwise IP-100,2013-12-06 22:07:00,
2013-12-06 17:12:00,39.4,37.0,30.05,NW,315,5.4,5.4,93,0.00,,,0.22,Rainwise IP-100,2013-12-06 22:12:00,
2013-12-06 17:17:00,39.5,38.0,30.05,NW,315,3.0,5.0,92,0.06,,,0.23,Rainwise IP-100,2013-12-06 22:17:00,
2013-12-06 17:22:00,39.4,37.0,30.04,NNE,22,2.1,5.0,92,0.12,,,0.24,Rainwise IP-100,2013-12-06 22:22:00,
2013-12-06 17:27:00,39.3,37.0,30.04,NNE,22,0.0,4.0,93,0.06,,,0.24,Rainwise IP-100,2013-12-06 22:27:00,
2013-12-06 17:32:00,39.1,37.0,30.04,NE,45,1.6,5.0,93,0.00,,,0.24,Rainwise IP-100,2013-12-06 22:32:00,
2013-12-06 17:37:00,39.0,38.0,30.05,NW,315,0.0,2.0,94,0.00,,,0.24,Rainwise IP-100,2013-12-06 22:37:00,
2013-12-06 17:42:00,38.9,38.0,30.05,NE,45,4.2,5.0,94,0.00,,,0.24,Rainwise IP-100,2013-12-06 22:42:00,
2013-12-06 17:47:00,38.9,38.0,30.06,NNE,22,1.4,5.0,94,0.00,,,0.24,Rainwise IP-100,2013-12-06 22:47:00,
2013-12-06 17:52:00,38.8,38.0,30.06,NNW,337,3.3,3.3,94,0.00,,,0.24,Rainwise IP-100,2013-12-06 22:52:00,
2013-12-06 17:57:00,38.8,38.0,30.06,NE,45,3.7,4.0,94,0.06,,,0.25,Rainwise IP-100,2013-12-06 22:57:00,
2013-12-06 18:02:00,38.7,38.0,30.06,North,0,2.6,5.0,94,0.12,,,0.26,Rainwise IP-100,2013-12-06 23:02:00,
2013-12-06 18:07:00,38.6,38.0,30.06,NNE,22,1.9,4.0,94,0.06,,,0.26,Rainwise IP-100,2013-12-06 23:07:00,
2013-12-06 18:12:00,38.4,37.0,30.06,NNW,337,4.2,6.0,95,0.00,,,0.26,Rainwise IP-100,2013-12-06 23:12:00,
2013-12-06 18:17:00,38.4,37.0,30.07,NNW,337,3.5,5.0,96,0.00,,,0.26,Rainwise IP-100,2013-12-06 23:17:00,
2013-12-06 18:22:00,38.3,37.0,30.06,NNE,22,4.0,5.0,96,0.06,,,0.27,Rainwise IP-100,2013-12-06 23:22:00,
2013-12-06 18:27:00,38.2,37.0,30.06,NNE,22,4.7,5.0,96,0.12,,,0.28,Rainwise IP-100,2013-12-06 23:27:00,
2013-12-06 18:32:00,38.0,37.0,30.07,NNE,22,2.1,5.0,97,0.12,,,0.29,Rainwise IP-100,2013-12-06 23:32:00,
2013-12-06 18:37:00,37.8,37.0,30.08,North,0,3.3,5.0,97,0.06,,,0.29,Rainwise IP-100,2013-12-06 23:37:00,
2013-12-06 18:42:00,37.7,37.0,30.08,North,0,4.9,6.0,97,0.06,,,0.30,Rainwise IP-100,2013-12-06 23:42:00,
2013-12-06 18:47:00,37.6,37.0,30.08,NE,45,4.4,5.0,97,0.12,,,0.31,Rainwise IP-100,2013-12-06 23:47:00,
2013-12-06 18:52:00,37.6,37.0,30.08,NE,45,2.6,6.0,97,0.06,,,0.31,Rainwise IP-100,2013-12-06 23:52:00,
2013-12-06 18:57:00,37.5,37.0,30.06,NNE,22,8.4,8.4,97,0.06,,,0.32,Rainwise IP-100,2013-12-06 23:57:00,
2013-12-06 19:02:00,37.4,36.0,30.06,NNE,22,4.4,8.0,97,0.12,,,0.33,Rainwise IP-100,2013-12-07 00:02:00,
2013-12-06 19:07:00,37.4,36.0,30.07,NNE,22,5.1,8.0,97,0.12,,,0.34,Rainwise IP-100,2013-12-07 00:07:00,
2013-12-06 19:12:00,37.3,36.0,30.06,NNE,22,4.9,7.0,97,0.12,,,0.35,Rainwise IP-100,2013-12-07 00:12:00,
2013-12-06 19:17:00,37.2,36.0,30.07,NNE,22,4.2,8.0,97,0.12,,,0.36,Rainwise IP-100,2013-12-07 00:17:00,
2013-12-06 19:22:00,37.1,36.0,30.07,North,0,4.2,5.0,97,0.18,,,0.38,Rainwise IP-100,2013-12-07 00:22:00,
2013-12-06 19:27:00,37.1,36.0,30.06,NE,45,3.7,6.0,97,0.24,,,0.40,Rainwise IP-100,2013-12-07 00:27:00,
2013-12-06 19:32:00,37.0,36.0,30.07,North,0,5.1,6.0,97,0.24,,,0.42,Rainwise IP-100,2013-12-07 00:32:00,
2013-12-06 19:37:00,36.9,37.0,30.08,NNW,337,6.1,7.0,98,0.24,,,0.44,Rainwise IP-100,2013-12-07 00:37:00,
2013-12-06 19:42:00,36.8,37.0,30.09,NNW,337,4.9,8.0,98,0.36,,,0.48,Rainwise IP-100,2013-12-07 00:42:00,
2013-12-06 19:47:00,36.7,37.0,30.08,NNW,337,6.8,7.0,99,0.54,,,0.53,Rainwise IP-100,2013-12-07 00:47:00,
2013-12-06 19:52:00,36.6,37.0,30.09,NNE,22,4.9,8.0,99,0.48,,,0.56,Rainwise IP-100,2013-12-07 00:52:00,
2013-12-06 19:57:00,36.5,37.0,30.07,North,0,4.9,7.0,99,0.24,,,0.57,Rainwise IP-100,2013-12-07 00:57:00,
2013-12-06 20:02:00,36.5,37.0,30.08,North,0,4.4,7.0,99,0.18,,,0.59,Rainwise IP-100,2013-12-07 01:02:00,
2013-12-06 20:07:00,36.5,37.0,30.09,NNW,337,4.2,8.0,99,0.18,,,0.60,Rainwise IP-100,2013-12-07 01:07:00,
2013-12-06 20:12:00,36.4,36.0,30.10,North,0,5.8,7.0,99,0.18,,,0.62,Rainwise IP-100,2013-12-07 01:12:00,
2013-12-06 20:17:00,36.3,36.0,30.09,NNE,22,4.0,7.0,99,0.18,,,0.63,Rainwise IP-100,2013-12-07 01:17:00,
2013-12-06 20:22:00,36.3,36.0,30.11,NW,315,4.7,10.0,99,0.12,,,0.64,Rainwise IP-100,2013-12-07 01:22:00,
2013-12-06 20:27:00,36.2,36.0,30.11,NW,315,5.8,8.0,99,0.12,,,0.65,Rainwise IP-100,2013-12-07 01:27:00,
2013-12-06 20:32:00,36.2,36.0,30.11,NNE,22,4.4,7.0,99,0.18,,,0.67,Rainwise IP-100,2013-12-07 01:32:00,
2013-12-06 20:37:00,36.0,36.0,30.09,NNE,22,4.7,8.0,99,0.24,,,0.69,Rainwise IP-100,2013-12-07 01:37:00,
2013-12-06 20:42:00,35.9,36.0,30.08,NE,45,4.7,9.0,99,0.18,,,0.70,Rainwise IP-100,2013-12-07 01:42:00,
2013-12-06 20:47:00,35.8,36.0,30.08,North,0,5.6,7.0,99,0.12,,,0.71,Rainwise IP-100,2013-12-07 01:47:00,
2013-12-06 20:52:00,35.8,36.0,30.07,NNE,22,4.9,6.0,99,0.06,,,0.71,Rainwise IP-100,2013-12-07 01:52:00,
2013-12-06 20:57:00,35.8,36.0,30.06,NE,45,4.7,7.0,99,0.06,,,0.72,Rainwise IP-100,2013-12-07 01:57:00,
2013-12-06 21:02:00,35.7,36.0,30.07,ENE,67,3.0,5.0,99,0.12,,,0.73,Rainwise IP-100,2013-12-07 02:02:00,
2013-12-06 21:07:00,35.8,36.0,30.06,ENE,67,2.1,5.0,99,0.12,,,0.74,Rainwise IP-100,2013-12-07 02:07:00,
2013-12-06 21:12:00,35.8,36.0,30.07,ENE,67,4.0,4.0,99,0.12,,,0.75,Rainwise IP-100,2013-12-07 02:12:00,
2013-12-06 21:17:00,35.8,36.0,30.08,NNE,22,4.2,4.2,99,0.12,,,0.76,Rainwise IP-100,2013-12-07 02:17:00,
2013-12-06 21:22:00,35.7,36.0,30.09,NW,315,4.2,5.0,99,0.12,,,0.77,Rainwise IP-100,2013-12-07 02:22:00,
2013-12-06 21:27:00,35.8,36.0,30.10,NW,315,4.4,5.0,99,0.06,,,0.77,Rainwise IP-100,2013-12-07 02:27:00,
2013-12-06 21:32:00,35.7,36.0,30.09,North,0,4.0,6.0,99,0.06,,,0.78,Rainwise IP-100,2013-12-07 02:32:00,
2013-12-06 21:37:00,35.7,36.0,30.09,NNW,337,4.2,6.0,99,0.12,,,0.79,Rainwise IP-100,2013-12-07 02:37:00,
2013-12-06 21:42:00,35.7,36.0,30.08,NNE,22,2.1,5.0,99,0.12,,,0.80,Rainwise IP-100,2013-12-07 02:42:00,
2013-12-06 21:47:00,35.7,36.0,30.09,NNW,337,6.1,6.1,99,0.06,,,0.80,Rainwise IP-100,2013-12-07 02:47:00,
2013-12-06 21:52:00,35.6,36.0,30.09,NNE,22,5.8,8.0,100,0.00,,,0.80,Rainwise IP-100,2013-12-07 02:52:00,
2013-12-06 21:57:00,35.6,36.0,30.09,NNW,337,6.3,7.0,99,0.06,,,0.81,Rainwise IP-100,2013-12-07 02:57:00,
2013-12-06 22:02:00,35.6,36.0,30.09,North,0,3.5,6.0,99,0.06,,,0.81,Rainwise IP-100,2013-12-07 03:02:00,
2013-12-06 22:07:00,35.6,36.0,30.09,NNE,22,4.0,7.0,99,0.06,,,0.82,Rainwise IP-100,2013-12-07 03:07:00,
2013-12-06 22:12:00,35.6,36.0,30.09,NNE,22,3.7,9.0,99,0.06,,,0.82,Rainwise IP-100,2013-12-07 03:12:00,
2013-12-06 22:17:00,35.6,36.0,30.08,NNE,22,2.6,6.0,99,0.00,,,0.82,Rainwise IP-100,2013-12-07 03:17:00,
2013-12-06 22:22:00,35.6,36.0,30.09,North,0,5.1,6.0,99,0.06,,,0.83,Rainwise IP-100,2013-12-07 03:22:00,
2013-12-06 22:27:00,35.6,36.0,30.08,NE,45,3.5,6.0,99,0.06,,,0.83,Rainwise IP-100,2013-12-07 03:27:00,
2013-12-06 22:32:00,35.5,36.0,30.08,NNE,22,5.4,8.0,99,0.00,,,0.83,Rainwise IP-100,2013-12-07 03:32:00,
2013-12-06 22:37:00,35.5,36.0,30.09,NE,45,2.6,8.0,99,0.06,,,0.84,Rainwise IP-100,2013-12-07 03:37:00,
2013-12-06 22:42:00,35.5,36.0,30.10,NE,45,4.7,7.0,99,0.06,,,0.84,Rainwise IP-100,2013-12-07 03:42:00,
2013-12-06 22:47:00,35.6,36.0,30.11,NNE,22,4.9,6.0,99,0.06,,,0.85,Rainwise IP-100,2013-12-07 03:47:00,
2013-12-06 22:52:00,35.5,36.0,30.11,North,0,4.0,6.0,99,0.06,,,0.85,Rainwise IP-100,2013-12-07 03:52:00,
2013-12-06 22:57:00,35.5,36.0,30.10,NE,45,6.3,6.3,99,0.06,,,0.86,Rainwise IP-100,2013-12-07 03:57:00,
2013-12-06 23:02:00,35.4,35.0,30.09,NNE,22,3.0,7.0,99,0.12,,,0.87,Rainwise IP-100,2013-12-07 04:02:00,
2013-12-06 23:07:00,35.4,35.0,30.09,NE,45,3.3,6.0,99,0.12,,,0.88,Rainwise IP-100,2013-12-07 04:07:00,
2013-12-06 23:12:00,35.3,35.0,30.10,NNW,337,4.4,7.0,99,0.18,,,0.90,Rainwise IP-100,2013-12-07 04:12:00,
2013-12-06 23:17:00,35.2,35.0,30.12,NW,315,7.7,7.7,99,0.18,,,0.91,Rainwise IP-100,2013-12-07 04:17:00,
2013-12-06 23:22:00,35.3,35.0,30.13,NW,315,5.1,9.0,99,0.12,,,0.92,Rainwise IP-100,2013-12-07 04:22:00,
2013-12-06 23:27:00,35.4,35.0,30.13,NW,315,5.8,8.0,99,0.12,,,0.93,Rainwise IP-100,2013-12-07 04:27:00,
2013-12-06 23:32:00,35.4,35.0,30.12,North,0,5.1,7.0,98,0.12,,,0.94,Rainwise IP-100,2013-12-07 04:32:00,
2013-12-06 23:37:00,35.2,35.0,30.09,NNE,22,5.6,11.0,98,0.06,,,0.95,Rainwise IP-100,2013-12-07 04:37:00,
2013-12-06 23:42:00,35.1,35.0,30.09,NE,45,6.8,8.0,98,0.12,,,0.96,Rainwise IP-100,2013-12-07 04:42:00,
2013-12-06 23:47:00,35.0,35.0,30.09,NNE,22,5.4,10.0,98,0.12,,,0.96,Rainwise IP-100,2013-12-07 04:47:00,
2013-12-06 23:52:00,34.9,35.0,30.08,North,0,3.5,7.0,98,0.06,,,0.97,Rainwise IP-100,2013-12-07 04:52:00,
2013-12-06 23:57:00,34.9,35.0,30.11,NNW,337,5.6,6.0,99,0.12,,,0.98,Rainwise IP-100,2013-12-07 04:57:00,